User: anonymous   Login
Location: Sperry Observatory
(40.6664°N, 74.3236°W)
Time: 00:59:12
(UTC-04:00)
Language:

UOSAT-12 - Orbit

View from above orbital plane
View from above orbital plane
View from above satellite
View from above satellite

Ground track
Ground track

The orbit data is extracted from the following two-line orbital elements,

1 25693U 99021A   16238.77345501 -.00000040  00000-0  13209-4 0  9992
2 25693  64.5570 316.0991 0004729 302.5879  57.4769 14.80672115936426
Epoch (UTC): 25 August 2016 18:33:46
Eccentricity: 0.0004729
inclination: 64.5570°
perigee height: 624 km
apogee height: 630 km
right ascension of ascending node: 316.0991°
argument of perigee: 302.5879°
revolutions per day: 14.80672115
mean anomaly at epoch: 57.4769°
orbit number at epoch: 93642

The dashed part of the orbit path shows where the satellite is in the earth's shadow,  

DLR